| time (UTC) | temp C | wind direction | speed KPH | gust KPH | rain 1hr cm | rain 24hr cm | rain mn cm | humidity % | barometer mb |
| 20260503175408 | 14 | 250 | 1.6 | 6.4 | 0.00 | 0.00 | 0.00 | 26 | 1020.5 |
| 20260503174908 | 15 | 336 | 3.2 | 8.0 | 0.00 | 0.00 | 0.00 | 25 | 1020.6 |
| 20260503174407 | 13 | 276 | 9.7 | 16.1 | 0.00 | 0.00 | 0.00 | 25 | 1020.6 |
| 20260503173908 | 14 | 291 | 6.4 | 16.1 | 0.00 | 0.00 | 0.00 | 28 | 1020.8 |
| 20260503173407 | 13 | 267 | 9.7 | 19.3 | 0.00 | 0.00 | 0.00 | 28 | 1020.9 |
| 20260503172907 | 14 | 338 | 8.0 | 14.5 | 0.00 | 0.00 | 0.00 | 23 | 1020.8 |
| 20260503172406 | 14 | 75 | 4.8 | 11.3 | 0.00 | 0.00 | 0.00 | 23 | 1020.8 |
| 20260503171906 | 15 | 276 | 8.0 | 14.5 | 0.00 | 0.00 | 0.00 | 24 | 1020.8 |
| 20260503171406 | 14 | 262 | 6.4 | 14.5 | 0.00 | 0.00 | 0.00 | 24 | 1020.9 |
| 20260503170405 | 16 | 131 | 3.2 | 8.0 | 0.00 | 0.00 | 0.00 | 23 | 1021.1 |
| 20260503150859 | 11 | 252 | 3.2 | 8.0 | 0.00 | 0.00 | 0.00 | 41 | 1022.1 |
| 20260503150357 | 10 | 333 | 1.6 | 6.4 | 0.00 | 0.00 | 0.00 | 35 | 1022.1 |
| 20260503131348 | 5 | 0 | 0.0 | 0.0 | 0.00 | 0.00 | 0.00 | 100 | 1022.2 |
| 20260503110340 | -1 | 0 | 0.0 | 0.0 | 0.00 | 0.00 | 0.00 | 100 | 1021.3 |
| 20260503090333 | -1 | 0 | 0.0 | 0.0 | 0.00 | 0.00 | 0.00 | 100 | 1020.9 |
| 20260503081331 | 0 | 0 | 0.0 | 0.0 | 0.00 | 0.00 | 0.00 | 100 | 1020.7 |
| 20260503080830 | 0 | 0 | 0.0 | 0.0 | 0.00 | 0.00 | 0.00 | 100 | 1020.7 |
| 20260503080330 | 0 | 0 | 0.0 | 0.0 | 0.00 | 0.00 | 0.00 | 100 | 1020.5 |
| 20260503072828 | 0 | 0 | 0.0 | 0.0 | 0.00 | 0.00 | 0.00 | 100 | 1020.0 |
| 20260503072327 | 1 | 0 | 0.0 | 0.0 | 0.00 | 0.00 | 0.00 | 100 | 1020.0 |
| 20260503071827 | 0 | 0 | 0.0 | 0.0 | 0.00 | 0.00 | 0.00 | 100 | 1019.9 |
| 20260503070827 | 0 | 0 | 0.0 | 0.0 | 0.00 | 0.00 | 0.00 | 100 | 1019.9 |
| 20260503060321 | 2 | 0 | 0.0 | 0.0 | 0.00 | 0.00 | 0.00 | 100 | 1019.6 |
| 20260503054319 | 2 | 0 | 0.0 | 0.0 | 0.00 | 0.00 | 0.00 | 100 | 1019.6 |
| 20260503052818 | 2 | 0 | 0.0 | 0.0 | 0.00 | 0.00 | 0.00 | 100 | 1019.6 |
| 20260503051317 | 2 | 0 | 0.0 | 0.0 | 0.00 | 0.00 | 0.00 | 100 | 1019.6 |
| 20260503050816 | 2 | 0 | 0.0 | 0.0 | 0.00 | 0.00 | 0.00 | 100 | 1019.5 |
| 20260503050316 | 2 | 0 | 0.0 | 0.0 | 0.00 | 0.00 | 0.00 | 100 | 1019.5 |
| 20260503045816 | 2 | 0 | 0.0 | 0.0 | 0.00 | 0.00 | 0.00 | 100 | 1019.4 |
| 20260503045316 | 3 | 0 | 0.0 | 0.0 | 0.00 | 0.00 | 0.00 | 100 | 1019.3 |
| 20260503043814 | 2 | 0 | 0.0 | 0.0 | 0.00 | 0.00 | 0.00 | 100 | 1019.3 |
| 20260503043314 | 3 | 0 | 0.0 | 0.0 | 0.00 | 0.00 | 0.00 | 100 | 1019.2 |
| 20260503042812 | 3 | 0 | 0.0 | 0.0 | 0.00 | 0.00 | 0.00 | 100 | 1019.1 |
| 20260503042312 | 3 | 0 | 0.0 | 0.0 | 0.00 | 0.00 | 0.00 | 100 | 1019.1 |
| 20260503041812 | 3 | 0 | 0.0 | 0.0 | 0.00 | 0.00 | 0.00 | 100 | 1018.9 |
| 20260503040811 | 3 | 0 | 0.0 | 0.0 | 0.00 | 0.00 | 0.00 | 100 | 1018.9 |
| 20260503040311 | 3 | 0 | 0.0 | 0.0 | 0.00 | 0.00 | 0.00 | 100 | 1018.9 |
| 20260503035810 | 3 | 0 | 0.0 | 0.0 | 0.00 | 0.00 | 0.00 | 100 | 1018.8 |
| 20260503035310 | 3 | 0 | 0.0 | 0.0 | 0.00 | 0.00 | 0.00 | 100 | 1018.9 |
| 20260503034810 | 4 | 0 | 0.0 | 0.0 | 0.00 | 0.00 | 0.00 | 100 | 1019.0 |
| 20260503034310 | 4 | 0 | 0.0 | 0.0 | 0.00 | 0.00 | 0.00 | 100 | 1019.0 |
| 20260503033810 | 4 | 0 | 0.0 | 0.0 | 0.00 | 0.00 | 0.00 | 100 | 1018.9 |
| 20260503033309 | 5 | 0 | 0.0 | 0.0 | 0.00 | 0.00 | 0.00 | 100 | 1019.0 |
| 20260503032809 | 4 | 0 | 0.0 | 0.0 | 0.00 | 0.00 | 0.00 | 100 | 1018.9 |
| 20260503023804 | 6 | 0 | 0.0 | 0.0 | 0.00 | 0.00 | 0.00 | 100 | 1018.7 |
| 20260503023304 | 6 | 0 | 0.0 | 0.0 | 0.00 | 0.00 | 0.00 | 100 | 1018.7 |
| 20260503022803 | 6 | 0 | 0.0 | 0.0 | 0.00 | 0.00 | 0.00 | 100 | 1018.7 |
| 20260503022305 | 5 | 0 | 0.0 | 0.0 | 0.00 | 0.00 | 0.00 | 100 | 1018.6 |
| 20260503021803 | 6 | 0 | 0.0 | 0.0 | 0.00 | 0.00 | 0.00 | 100 | 1018.5 |
| 20260503013800 | 7 | 0 | 0.0 | 0.0 | 0.00 | 0.00 | 0.00 | 94 | 1018.1 |
| 20260503012759 | 6 | 0 | 0.0 | 0.0 | 0.00 | 0.00 | 0.00 | 89 | 1017.8 |
| 20260503011757 | 6 | 0 | 0.0 | 0.0 | 0.00 | 0.00 | 0.00 | 78 | 1017.8 |
| 20260503010757 | 7 | 0 | 0.0 | 0.0 | 0.00 | 0.00 | 0.00 | 74 | 1017.6 |
| 20260503005756 | 7 | 0 | 0.0 | 0.0 | 0.00 | 0.00 | 0.00 | 74 | 1017.4 |
| 20260503005256 | 7 | 0 | 0.0 | 0.0 | 0.00 | 0.00 | 0.00 | 70 | 1017.3 |
| 20260503003755 | 8 | 0 | 0.0 | 0.0 | 0.00 | 0.00 | 0.00 | 60 | 1017.1 |
| 20260503003255 | 8 | 0 | 0.0 | 0.0 | 0.00 | 0.00 | 0.00 | 61 | 1017.1 |
| 20260503002755 | 8 | 356 | 0.0 | 3.2 | 0.00 | 0.00 | 0.00 | 62 | 1017.0 |
| 20260503002254 | 9 | 339 | 0.0 | 3.2 | 0.00 | 0.00 | 0.00 | 54 | 1017.0 |
| 20260503001252 | 10 | 346 | 0.0 | 6.4 | 0.00 | 0.00 | 0.00 | 56 | 1016.9 |
| 20260503000251 | 10 | 342 | 0.0 | 4.8 | 0.00 | 0.00 | 0.00 | 51 | 1016.8 |
| 20260502235251 | 11 | 338 | 4.8 | 11.3 | 0.00 | 0.00 | 0.00 | 46 | 1016.6 |
| 20260502234750 | 11 | 321 | 3.2 | 9.7 | 0.00 | 0.00 | 0.00 | 47 | 1016.6 |
| 20260502234250 | 11 | 0 | 0.0 | 0.0 | 0.00 | 0.00 | 0.00 | 53 | 1016.7 |
| 20260502233749 | 11 | 0 | 0.0 | 0.0 | 0.00 | 0.00 | 0.00 | 46 | 1016.7 |
| 20260502232247 | 12 | 356 | 1.6 | 8.0 | 0.00 | 0.00 | 0.00 | 43 | 1016.5 |
| 20260502230746 | 12 | 357 | 3.2 | 9.7 | 0.00 | 0.00 | 0.00 | 40 | 1016.5 |
| 20260502230246 | 13 | 330 | 3.2 | 12.9 | 0.00 | 0.00 | 0.00 | 44 | 1016.6 |
| 20260502225245 | 13 | 332 | 4.8 | 14.5 | 0.00 | 0.00 | 0.00 | 44 | 1016.6 |
| 20260502224745 | 12 | 332 | 4.8 | 14.5 | 0.00 | 0.00 | 0.00 | 46 | 1016.8 |
| 20260502224245 | 12 | 321 | 3.2 | 14.5 | 0.00 | 0.00 | 0.00 | 46 | 1016.8 |
| 20260502223744 | 12 | 346 | 6.4 | 14.5 | 0.00 | 0.00 | 0.00 | 48 | 1016.8 |
| 20260502223244 | 11 | 356 | 3.2 | 9.7 | 0.00 | 0.00 | 0.00 | 45 | 1016.7 |
| 20260502222744 | 12 | 328 | 11.3 | 14.5 | 0.00 | 0.00 | 0.00 | 47 | 1016.8 |
| 20260502222244 | 11 | 347 | 4.8 | 9.7 | 0.00 | 0.00 | 0.00 | 45 | 1016.7 |
| 20260502221743 | 11 | 356 | 3.2 | 9.7 | 0.00 | 0.00 | 0.00 | 47 | 1016.7 |
| 20260502221243 | 12 | 75 | 0.0 | 4.8 | 0.00 | 0.00 | 0.00 | 48 | 1016.6 |
| 20260502220743 | 11 | 321 | 0.0 | 3.2 | 0.00 | 0.00 | 0.00 | 46 | 1016.6 |
| 20260502220243 | 12 | 290 | 1.6 | 11.3 | 0.00 | 0.00 | 0.00 | 44 | 1016.6 |
| 20260502215240 | 12 | 352 | 1.6 | 9.7 | 0.00 | 0.00 | 0.00 | 44 | 1016.5 |
| 20260502214740 | 11 | 0 | 0.0 | 0.0 | 0.00 | 0.00 | 0.00 | 45 | 1016.4 |
| 20260502214240 | 11 | 205 | 1.6 | 6.4 | 0.00 | 0.00 | 0.00 | 42 | 1016.3 |
| 20260502213239 | 12 | 120 | 1.6 | 8.0 | 0.00 | 0.00 | 0.00 | 46 | 1016.3 |
| 20260502212739 | 11 | 356 | 3.2 | 12.9 | 0.00 | 0.00 | 0.00 | 41 | 1016.2 |
| 20260502212238 | 12 | 200 | 1.6 | 12.9 | 0.00 | 0.00 | 0.00 | 43 | 1016.2 |
| 20260502211738 | 12 | 332 | 3.2 | 11.3 | 0.00 | 0.00 | 0.00 | 41 | 1016.2 |
| 20260502211238 | 13 | 322 | 0.0 | 8.0 | 0.00 | 0.00 | 0.00 | 40 | 1016.1 |
| 20260502210237 | 13 | 335 | 6.4 | 14.5 | 0.00 | 0.00 | 0.00 | 37 | 1016.1 |
| 20260502205738 | 13 | 319 | 1.6 | 11.3 | 0.00 | 0.00 | 0.00 | 42 | 1016.1 |
| 20260502205237 | 13 | 326 | 4.8 | 16.1 | 0.00 | 0.00 | 0.00 | 39 | 1016.1 |
| 20260502204236 | 13 | 328 | 8.0 | 17.7 | 0.00 | 0.00 | 0.00 | 38 | 1016.1 |
| 20260502203236 | 13 | 330 | 9.7 | 16.1 | 0.00 | 0.00 | 0.00 | 38 | 1016.1 |
| 20260502202735 | 12 | 300 | 4.8 | 17.7 | 0.00 | 0.00 | 0.00 | 39 | 1016.2 |
| 20260502202235 | 13 | 339 | 4.8 | 14.5 | 0.00 | 0.00 | 0.00 | 42 | 1016.2 |
| 20260502201735 | 13 | 326 | 6.4 | 20.9 | 0.00 | 0.00 | 0.00 | 39 | 1016.2 |
| 20260502201234 | 13 | 343 | 8.0 | 12.9 | 0.00 | 0.00 | 0.00 | 35 | 1016.3 |
| 20260502200734 | 14 | 343 | 1.6 | 6.4 | 0.00 | 0.00 | 0.00 | 35 | 1016.4 |
| 20260502200233 | 13 | 7 | 1.6 | 9.7 | 0.00 | 0.00 | 0.00 | 40 | 1016.4 |
| 20260502195732 | 13 | 25 | 3.2 | 12.9 | 0.00 | 0.00 | 0.00 | 38 | 1016.4 |
| 20260502195232 | 13 | 134 | 1.6 | 12.9 | 0.00 | 0.00 | 0.00 | 40 | 1016.4 |
| 20260502194731 | 13 | 150 | 1.6 | 9.7 | 0.00 | 0.00 | 0.00 | 39 | 1016.4 |
| 20260502194231 | 13 | 45 | 1.6 | 8.0 | 0.00 | 0.00 | 0.00 | 39 | 1016.4 |
| 20260502193733 | -17 | 304 | 0.0 | 1.6 | 0.00 | 0.00 | 0.00 | ||
| 20260502193731 | 13 | 304 | 0.0 | 1.6 | 0.00 | 0.00 | 0.00 | 39 | 1016.5 |
| 20260502193231 | 13 | 350 | 0.0 | 4.8 | 0.00 | 0.00 | 0.00 | 42 | 1016.5 |
| 20260502192230 | 12 | 346 | 3.2 | 9.7 | 0.00 | 0.00 | 0.00 | 39 | 1016.5 |
| 20260502191730 | 12 | 329 | 1.6 | 11.3 | 0.00 | 0.00 | 0.00 | 34 | 1016.5 |
| 20260502191229 | 13 | 308 | 1.6 | 8.0 | 0.00 | 0.00 | 0.00 | 41 | 1016.5 |
| 20260502190228 | 15 | 111 | 4.8 | 9.7 | 0.00 | 0.00 | 0.00 | 38 | 1016.6 |
| 20260502185228 | 17 | 142 | 1.6 | 8.0 | 0.00 | 0.00 | 0.00 | 34 | 1016.7 |
| 20260502184227 | 15 | 263 | 0.0 | 6.4 | 0.00 | 0.00 | 0.00 | 44 | 1016.7 |
| 20260502183728 | 13 | 269 | 0.0 | 4.8 | 0.00 | 0.00 | 0.00 | 49 | 1016.8 |
| 20260502183226 | 12 | 235 | 0.0 | 1.6 | 0.00 | 0.00 | 0.00 | 50 | 1016.9 |
| 20260502182226 | 13 | 349 | 1.6 | 9.7 | 0.00 | 0.00 | 0.00 | 40 | 1017.1 |
| 20260502181726 | 12 | 336 | 3.2 | 11.3 | 0.00 | 0.00 | 0.00 | 36 | 1017.1 |
| 20260502181225 | 13 | 340 | 1.6 | 9.7 | 0.00 | 0.00 | 0.00 | 41 | 1017.1 |
| 20260502180725 | 13 | 352 | 3.2 | 8.0 | 0.00 | 0.00 | 0.00 | 40 | 1017.0 |
| 20260502180225 | 12 | 350 | 3.2 | 9.7 | 0.00 | 0.00 | 0.00 | 42 | 1017.0 |